DELTA 1 DEB (YO), 227

Orbit data source: Space-Track

DELTA 1 DEB (YO), 227 is space debris in LEO originally from a launch on Thu, 08 Feb 1962 UTC launched from the Air Force Eastern Test Range (AFETR). Debris objects in space refer to the collection of defunct objects orbiting the Earth. Examples of debris include non-operational satellites, rocket bodies, and fragments generated from explosions, collisions, or faulty payload assembly.

Loading next visibility...
Identifier
227, 1962-002B
Orbit
LEO
Country
Flag of USUS
Related business
Manufacturer
RCA/East Windsor
Mission
Spacecraft
Bus & Motor
Unknown
Mass
~1 kg wet, ~1 kg dry
Launch date (UTC)
1962-02-08 (64 years ago)
Launch vehicle
Unknown
Launch site
Air Force Eastern Test Range (AFETR)
Object type
Payload
Rocket body
Debris
Shape & HBR
Unknown shape, 0.1 m
Radar Cross Section
Medium (>0.1 m² and <1 m²)

Expand to show TLE details & history
Last TLE update: 21 hours ago

TLE from 21 hours ago
0 DELTA 1 DEB (YO)
1   227U 62002B   26197.48829926 -.00000039  00000-0  38504-4 0  9991
2   227  48.1453 217.7071 0127162 180.8754 179.1935 14.40805029348525
Epoch: 2026-07-16T11:43Z
TLE epoch observation values (Epoch: 2026-07-16T11:43:09.056Z)
Latitude
-0.00003°
Longitude
107.5903°
Altitude
846.878 km
Speed
7.383 km/s
True Right ascension
14h 30m 49s
True Declination
0° 00' 00"
Sunlit
Object was in daylight at epoch
Visualization orbit readout
Latitude
Unknown
Longitude
Unknown
Altitude
Unknown
Speed
Unknown
Apparent Right ascension
Unknown
Apparent Declination
Unknown
Sunlit
N/A
Visualization observer readout
Local Sidereal Time
20:55:23
Azimuth
Unknown
Elevation
Unknown
Doppler factor
Unknown
Orbital elements
Apogee altitude
847.611 km
Perigee altitude
666.15 km
Semi-major axis
7,135.018 km
Eccentricity
0.01272
Inclination
48.1453°
RAAN
217.7071°
Arg. of periapsis
180.8754°
True anomaly
179.21369°
Mean anomaly
179.1935°
Eccentric anomaly
179.20363°
Mean motion
3.60123 °/min
Orbital period
99.97 mins
BSTAR
0.000038504
Loading maneuver chart data...
Computing Atmospheric mass density...
Loading historical data...
Loading historical data...
Loading historical data...
Loading historical data...
Loading historical data...
Loading historical data...
Loading historical data...
Other satellites on launch #2 in the year 1962 (1962-02-08 UTC)

Documentation

Showing up to 5 results
|